Time,TemperatureF,DewpointF,PressureIn,WindDirection,WindDirectionDegrees,WindSpeedMPH,WindSpeedGustMPH,Humidity,HourlyPrecipIn,Conditions,Clouds,dailyrainin,SoftwareType,DateUTC
2013-04-12 00:00:00,32.0,-99.9,30.00,East,100,39.0,-999.0,-999,-99.99,,,-99.99,,2013-04-12 00:00:00,
2013-04-12 00:12:00,32.0,-99.9,30.00,East,100,39.0,-999.0,-999,-99.99,,,-99.99,,2013-04-12 00:12:00,
2013-04-12 00:22:00,32.0,-99.9,30.00,East,100,39.0,-999.0,-999,-99.99,,,-99.99,,2013-04-12 00:22:00,
2013-04-12 00:33:00,32.0,-99.9,30.00,East,100,39.0,-999.0,-999,-99.99,,,-99.99,,2013-04-12 00:33:00,
2013-04-12 00:43:00,32.0,-99.9,30.00,East,100,39.0,-999.0,-999,-99.99,,,-99.99,,2013-04-12 00:43:00,
2013-04-12 00:53:00,32.0,-99.9,30.00,East,100,39.0,-999.0,-999,-99.99,,,-99.99,,2013-04-12 00:53:00,
2013-04-12 02:00:00,28.0,-99.9,29.97,East,100,47.0,-999.0,-999,-99.99,,,-99.99,,2013-04-12 02:00:00,
2013-04-12 02:13:00,28.0,-99.9,29.97,East,100,47.0,-999.0,-999,-99.99,,,-99.99,,2013-04-12 02:13:00,
2013-04-12 02:23:00,28.0,-99.9,29.97,East,100,47.0,-999.0,-999,-99.99,,,-99.99,,2013-04-12 02:23:00,
2013-04-12 02:33:00,28.0,-99.9,29.97,East,100,47.0,-999.0,-999,-99.99,,,-99.99,,2013-04-12 02:33:00,
2013-04-12 02:42:00,28.0,-99.9,29.97,East,100,47.0,-999.0,-999,-99.99,,,-99.99,,2013-04-12 02:42:00,
2013-04-12 02:53:00,28.0,-99.9,29.97,East,100,47.0,-999.0,-999,-99.99,,,-99.99,,2013-04-12 02:53:00,
2013-04-12 05:00:00,27.0,-99.9,29.88,ENE,70,50.0,-999.0,-999,-99.99,,,-99.99,,2013-04-12 05:00:00,
2013-04-12 05:42:00,27.0,-99.9,29.88,ENE,70,50.0,-999.0,-999,-99.99,,,-99.99,,2013-04-12 05:42:00,
2013-04-12 05:52:00,27.0,-99.9,29.88,ENE,70,50.0,-999.0,-999,-99.99,,,-99.99,,2013-04-12 05:52:00,
2013-04-12 10:00:00,26.0,-99.9,-100.00,ENE,70,34.0,-999.0,-999,-99.99,,,-99.99,,2013-04-12 10:00:00,
2013-04-12 10:13:00,26.0,-99.9,-100.00,ENE,70,34.0,-999.0,-999,-99.99,,,-99.99,,2013-04-12 10:13:00,
2013-04-12 10:23:00,26.0,-99.9,-100.00,ENE,70,34.0,-999.0,-999,-99.99,,,-99.99,,2013-04-12 10:23:00,
2013-04-12 10:34:00,26.0,-99.9,-100.00,ENE,70,34.0,-999.0,-999,-99.99,,,-99.99,,2013-04-12 10:34:00,
2013-04-12 10:43:00,26.0,-99.9,-100.00,ENE,70,34.0,-999.0,-999,-99.99,,,-99.99,,2013-04-12 10:43:00,
2013-04-12 10:53:00,26.0,-99.9,-100.00,ENE,70,34.0,-999.0,-999,-99.99,,,-99.99,,2013-04-12 10:53:00,
2013-04-12 12:00:00,26.0,-99.9,29.77,ENE,60,24.0,-999.0,-999,-99.99,,,-99.99,,2013-04-12 12:00:00,
2013-04-12 12:13:00,26.0,-99.9,29.77,ENE,60,24.0,-999.0,-999,-99.99,,,-99.99,,2013-04-12 12:13:00,
2013-04-12 12:22:00,26.0,-99.9,29.77,ENE,60,24.0,-999.0,-999,-99.99,,,-99.99,,2013-04-12 12:22:00,
2013-04-12 12:33:00,26.0,-99.9,29.77,ENE,60,24.0,-999.0,-999,-99.99,,,-99.99,,2013-04-12 12:33:00,
2013-04-12 12:43:00,26.0,-99.9,29.77,ENE,60,24.0,-999.0,-999,-99.99,,,-99.99,,2013-04-12 12:43:00,
2013-04-12 12:54:00,26.0,-99.9,29.77,ENE,60,24.0,-999.0,-999,-99.99,,,-99.99,,2013-04-12 12:54:00,
2013-04-12 17:00:00,28.0,-99.9,29.71,East,80,29.0,-999.0,-999,-99.99,,,-99.99,,2013-04-12 17:00:00,
2013-04-12 17:34:00,28.0,-99.9,29.71,East,80,29.0,-999.0,-999,-99.99,,,-99.99,,2013-04-12 17:34:00,
2013-04-12 17:47:00,28.0,-99.9,29.71,East,80,29.0,-999.0,-999,-99.99,,,-99.99,,2013-04-12 17:47:00,